World > North America > United States > Utah

Hourly Flowell, UT Regional Weather

Feedback E-mail the Weather

Quick WX

Flowell, UT Weather Maps

°F °C°F °C
Flowell Weather Map
UTC Time: 7/1/2022, 10:16
Your Time:

Flowell, UT Regional Weather

Expires:202207011100;;488064
ASUS45 KSLC 011010
RWRUT 

UTAH REGIONAL WEATHER ROUNDUP
NATIONAL WEATHER SERVICE SALT LAKE CITY UT
400 AM MDT FRI JUL 01 2022


UTZ024>027-106-112>120-011100-

CENTRAL/NORTHEAST UTAH
  
CITY           SKY/WX    TMP DP  RH WIND       PRES   REMARKS
PROVO AIRPORT  CLOUDY    70  53  54 SE8       30.07R                  
MOAB/CANYONLAN MOCLDY    69  50  50 S7        30.10R                  
DELTA            N/A     68  41  37 SE13      30.03S                  
MANTI            N/A     54  48  81 SW3       30.16S                  
PRICE          CLOUDY    61  49  64 N5        30.20R                  
DUCHESNE       PTSUNNY   57  54  88 W9        30.26R                  
VERNAL         MOCLDY    57  53  86 N3        30.21F                  

$$


SKY/WX - Weather  TMP - Temperature  DP - Dew Point  RH - Humidity
WIND - Wind Direction/Speed PRES - Barometric Pressure VSB - Visibility
WCI - Wind Chill Index E13G22 Wind - East Wind 13 mph/Gusts of 22 mph

Trending Headlines

Flowell Radar Loop



Flowell Quick Facts


National Two Day Weather Forecast


E-mail the Flowell Weather Forecast

Voice your opinion or tell us about page issues...